Location: Corsier
(46.2637°N, 6.2238°E)
Time: 02:30:17
(UTC+00:00)

STARLINK-71 - Pass Details

Date: 07 June 2020
Orbit: 528 x 530 km, 53.0° (Epoch: 09 July)

Event Time Altitude Azimuth Distance (km) Brightness Sun altitude
Exits shadow 02:42:01 12° 228° (SW) 1,646 5.4 -8.9°
Maximum altitude 02:45:41 69° 146° (SE) 567 3.6 -8.5°
Drops below altitude 10° 02:49:42 10° 63° (ENE) 1,779 7.6 -8.0°
Sets 02:51:56 0° 61° (ENE) 2,672 8.9 -7.7°
